FENGYUN 1C DEB

Satellite information

Favourite Embed

Satellite Type and Status

DEBRISIN ORBIT

Key statistics

Satellite FENGYUN 1C DEB at a glance.

Uptime

9717

Days in orbit

Revolutions

≈ 14.3

Per day

Orbit

SSO

Sun Synchronous Orbit

Inclination

98.4

Latest

Satellite identification and parameters

Extended collection of information and parameters for FENGYUN 1C DEB.

Object identification

Identified? True

Debris? True

Object name: FENGYUN 1C DEB

International designator: 1999-025EQW

Object number (NORAD): 38149

Object ID (CCSDS): 38149

Country: PEOPLES REPUBLIC OF CHINA (PRC)

Current information (Y/N): Y

RCS size: SMALL

Orbital parameters

Period: 100.988 minutes

Inclination: 98.3566 deg

SMA: 7183.569 km

Apoapsis: 861.254 km

Periapsis: 749.615 km

RAAN: 334.1881 deg

Eccentricy: 0.00777044

Argument of periapsis: 175.9559 deg

Mean anomaly: 184.2267 deg

Mean motion: 14.25910713 rev/day

Mean motion (dot): 0.00000847 rev/day2

B* drag term: 0.00036135678 1/REarth

Two-line elements (TLE)

Creation date: Dec. 8, 2025, 3:46 a.m.

Reference frame: TEME

Reference center: EARTH

Epoch: Dec. 7, 2025, 5:18 p.m. UTC

TLE line 0: 0 FENGYUN 1C DEB

TLE line 1: 1 38149U 99025EQW 25341.72085602 .00000847 00000-0 36136-3 0 9996

TLE line 2: 2 38149 98.3566 334.1881 0077704 175.9559 184.2267 14.25910713704169

Live tracking on map

Real-time ground track for satellite FENGYUN 1C DEB.

In-orbit conjunctions

A list of the most updated potential collisions computed for object FENGYUN 1C DEB.

Target Orbit TCA Probability of collision Miss distance Type
SL-8 R/B LEO 2025-09-25 06:15:58 0.0001186728 284.0 (m) ROCKET BODY
CZ-6A DEB LEO 2024-10-31 14:27:43 0.0001266391 965.0 (m) DEBRIS
SL-14 DEB LEO 2024-09-21 17:56:39 0.0004101229 55.0 (m) DEBRIS

Associated space launch

Chinese polar orbiting meteorological satellite

FENGYUN 1C DEB was lifted into orbit during the mission ‘Long March 4B | Feng Yun 1C’, on board a Long March 4B space rocket.

The launch took place on May 10, 1999, 1:33 a.m. from Launch Complex 7.

For more information about the launch, click the button.

Launch to space Long March 4B | Feng Yun 1C
Long March 4B | Feng Yun 1C

Agency: N/A

Status: Launch Successful

Launch date: May 10, 1999, 1:33 a.m. UTC

Rocket: Long March 4B

Launch pad: Launch Complex 7

Location: Taiyuan Satellite Launch Center, People's Republic of China

...

Latest news about this satellite

There are no fresh news available about this satellite. Check back as we update our databases every day.


Newsletter sign-up

Weekly statistics, charts and insights to help you stay on top of the space industry.